TimeEET,TemperatureF,Dew PointF,Humidity,Sea Level PressureIn,VisibilityMPH,Wind Direction,Wind SpeedMPH,Gust SpeedMPH,PrecipitationIn,Events,Conditions,WindDirDegrees,DateUTC
12:20 AM,46.4,33.8,62,29.50,6.2,NW,9.2,-,N/A,,Partly Cloudy,310,2013-01-06 22:20:00
12:50 AM,46.4,32.0,57,29.50,6.2,NW,8.1,-,N/A,,Partly Cloudy,310,2013-01-06 22:50:00
1:20 AM,48.2,32.0,54,29.50,6.2,NW,10.4,-,N/A,,Partly Cloudy,310,2013-01-06 23:20:00
1:50 AM,50.0,32.0,50,29.50,6.2,NW,15.0,-,N/A,,Partly Cloudy,320,2013-01-06 23:50:00
2:00 AM,49,32,39,29.49,6,NW,15.0,,,,Scattered Clouds,320,2013-01-07 00:00:00
2:20 AM,50.0,32.0,50,29.50,6.2,NW,16.1,-,N/A,,Partly Cloudy,310,2013-01-07 00:20:00
2:50 AM,50.0,32.0,50,29.50,6.2,NW,18.4,-,N/A,,Partly Cloudy,320,2013-01-07 00:50:00
3:20 AM,50.0,32.0,50,29.50,6.2,NW,17.3,-,N/A,,Partly Cloudy,320,2013-01-07 01:20:00
3:50 AM,50.0,32.0,50,29.50,6.2,NW,17.3,-,N/A,,Partly Cloudy,320,2013-01-07 01:50:00
4:20 AM,48.2,30.2,50,29.50,6.2,NW,16.1,-,N/A,,Partly Cloudy,320,2013-01-07 02:20:00
4:50 AM,48.2,28.4,46,29.50,6.2,NW,15.0,-,N/A,,Partly Cloudy,320,2013-01-07 02:50:00
5:20 AM,48.2,28.4,46,29.50,6.2,NW,18.4,-,N/A,,Partly Cloudy,320,2013-01-07 03:20:00
5:50 AM,48.2,28.4,46,29.53,6.2,NW,18.4,-,N/A,,Partly Cloudy,310,2013-01-07 03:50:00
6:20 AM,48.2,28.4,46,29.53,6.2,NW,20.7,-,N/A,,Partly Cloudy,320,2013-01-07 04:20:00
6:50 AM,46.4,28.4,50,29.56,6.2,NW,19.6,-,N/A,,Scattered Clouds,320,2013-01-07 04:50:00
7:20 AM,46.4,26.6,46,29.56,6.2,NW,18.4,-,N/A,,Scattered Clouds,320,2013-01-07 05:20:00
7:50 AM,46.4,26.6,46,29.56,6.2,NW,19.6,-,N/A,,Scattered Clouds,320,2013-01-07 05:50:00
8:00 AM,46,27,35,29.57,6,NW,19.6,,,,Partly Cloudy,320,2013-01-07 06:00:00
8:20 AM,46.4,28.4,50,29.59,6.2,NW,20.7,-,N/A,,Scattered Clouds,320,2013-01-07 06:20:00
8:50 AM,48.2,26.6,43,29.59,6.2,NW,19.6,-,N/A,,Scattered Clouds,310,2013-01-07 06:50:00
9:20 AM,48.2,28.4,46,29.62,6.2,NW,24.2,-,N/A,,Scattered Clouds,310,2013-01-07 07:20:00
9:50 AM,48.2,26.6,43,29.62,6.2,NNW,21.9,34.5,N/A,,Scattered Clouds,330,2013-01-07 07:50:00
10:20 AM,50.0,26.6,40,29.62,6.2,NW,26.5,38.0,N/A,,Partly Cloudy,310,2013-01-07 08:20:00
10:50 AM,50.0,24.8,37,29.62,6.2,NW,31.1,43.7,N/A,,Partly Cloudy,310,2013-01-07 08:50:00
11:20 AM,50.0,23.0,35,29.62,6.2,NW,27.6,40.3,N/A,,Partly Cloudy,310,2013-01-07 09:20:00
11:50 AM,50.0,23.0,35,29.62,6.2,NW,27.6,-,N/A,,Partly Cloudy,320,2013-01-07 09:50:00
12:20 PM,50.0,24.8,37,29.65,6.2,NW,23.0,-,N/A,,Partly Cloudy,310,2013-01-07 10:20:00
12:50 PM,50.0,23.0,35,29.62,6.2,NW,20.7,-,N/A,,Partly Cloudy,310,2013-01-07 10:50:00
1:20 PM,50.0,21.2,32,29.65,6.2,NW,23.0,-,N/A,,Partly Cloudy,310,2013-01-07 11:20:00
1:50 PM,50.0,21.2,32,29.65,6.2,NW,20.7,-,N/A,,Partly Cloudy,310,2013-01-07 11:50:00
2:00 PM,51,20,18,29.65,12,NW,20.7,,,,Scattered Clouds,310,2013-01-07 12:00:00
2:20 PM,50.0,21.2,32,29.65,6.2,NW,25.3,-,N/A,,Partly Cloudy,320,2013-01-07 12:20:00
2:50 PM,50.0,21.2,32,29.68,6.2,NW,23.0,-,N/A,,Partly Cloudy,320,2013-01-07 12:50:00
3:20 PM,48.2,19.4,32,29.68,6.2,NW,20.7,-,N/A,,Partly Cloudy,320,2013-01-07 13:20:00
3:50 PM,48.2,19.4,32,29.71,6.2,WNW,17.3,-,N/A,,Partly Cloudy,300,2013-01-07 13:50:00
4:20 PM,46.4,19.4,34,29.71,6.2,NW,21.9,-,N/A,,Partly Cloudy,310,2013-01-07 14:20:00
4:50 PM,46.4,21.2,37,29.71,6.2,NNW,16.1,-,N/A,,Partly Cloudy,330,2013-01-07 14:50:00
5:20 PM,44.6,21.2,39,29.74,6.2,NW,12.7,-,N/A,,Partly Cloudy,320,2013-01-07 15:20:00
5:50 PM,44.6,19.4,37,29.74,6.2,NNW,12.7,-,N/A,,Partly Cloudy,330,2013-01-07 15:50:00
6:20 PM,42.8,23.0,46,29.77,6.2,NNW,12.7,-,N/A,,Partly Cloudy,330,2013-01-07 16:20:00
6:50 PM,42.8,21.2,42,29.77,6.2,NNW,13.8,-,N/A,,Partly Cloudy,330,2013-01-07 16:50:00
7:20 PM,42.8,21.2,42,29.80,6.2,NNW,15.0,-,N/A,,Partly Cloudy,340,2013-01-07 17:20:00
7:50 PM,41.0,24.8,53,29.80,6.2,North,8.1,-,N/A,,Partly Cloudy,360,2013-01-07 17:50:00
8:00 PM,41,24,38,29.80,6,North,8.1,,,,Scattered Clouds,0,2013-01-07 18:00:00
8:20 PM,41.0,24.8,53,29.83,6.2,North,6.9,-,N/A,,Partly Cloudy,10,2013-01-07 18:20:00
8:50 PM,39.2,24.8,56,29.83,-9999.0,North,9.2,-,N/A,,Clear,350,2013-01-07 18:50:00
9:20 PM,41.0,23.0,49,29.83,-9999.0,North,10.4,-,N/A,,Clear,350,2013-01-07 19:20:00
9:50 PM,39.2,23.0,52,29.83,-9999.0,NNW,6.9,-,N/A,,Clear,330,2013-01-07 19:50:00
10:20 PM,39.2,24.8,56,29.83,-9999.0,NNW,8.1,-,N/A,,Clear,340,2013-01-07 20:20:00
10:50 PM,39.2,24.8,56,29.83,-9999.0,North,10.4,-,N/A,,Clear,350,2013-01-07 20:50:00
11:20 PM,35.6,24.8,65,29.86,-9999.0,North,10.4,-,N/A,,Clear,350,2013-01-07 21:20:00
11:50 PM,33.8,24.8,70,29.86,-9999.0,NNW,9.2,-,N/A,,Clear,340,2013-01-07 21:50:00